Location: *
(45.1961°N, 1.9694°E)
Time: 21:00:16
(UTC+00:00)

Cosmos 2366 rocket - Pass Details

Date: 25 August 2019
Orbit: 955 x 997 km, 82.9° (Epoch: 22 October)

Event Time Altitude Azimuth Distance (km) Brightness Sun altitude
Rises 22:35:35 0° 353° (N) 3,685 8.1 -31.4°
Reaches altitude 10° 22:38:07 10° 357° (N) 2,740 7.1 -31.6°
Enters shadow 22:43:34 59° 41° (NE) 1,127 4.3 -32.0°
